{"data":{"norad_id":59247,"intl_designator":"2024-049S","name":"STARLINK-31424","alt_names":[],"object_type":"PAYLOAD","status":"ACTIVE","operator":null,"country":"US","launch_date":"2024-03-16","launch_site_code":"AFETR","launch_vehicle":null,"mission":null,"orbit_class":"UNKNOWN","rcs_meters":null,"size_class":null,"mass_kg":null,"dimensions":null,"purposes":["comms"],"wikipedia_slug":null,"has_3d_model":false,"image_url":null,"decayed_at":null,"tle_current":{"epoch":"2026-09-20T07:52:56.015904Z","epoch_age_seconds":173672,"freshness":"STALE","line1":"1 59247U 24049S   26263.32842611 -.00004037  00000+0 -13720-3 0  9993","line2":"2 59247  43.0009 120.8485 0000369  46.1780 313.9102 15.27594780142203","mean_motion":15.2759478,"eccentricity":3.69e-5,"inclination_deg":43.0009,"raan_deg":120.8485,"arg_perigee_deg":46.178,"mean_anomaly_deg":313.9102,"bstar":-0.0001372,"rev_number":14220,"period_min":94.265836650738,"perigee_km":482.75166362552,"apogee_km":483.2580158933,"semimajor_km":6861.1418397594,"source":"CELESTRAK","updated_at":"2026-09-21T09:00:34.077965Z"}}}